User: anonymous
Location: Camp Creek
(33.9000°N, 111.8167°W)
Time: 01:45:03
(UTC-07:00)
Language:

Cosmos 2322 Rocket - Orbit

View from above orbital plane
View from above orbital plane
View from above satellite
View from above satellite

Ground track
Ground track

The orbit data is extracted from the following two-line orbital elements,

1 23705U 95058B   14106.06654643  .00000150  00000-0  10175-3 0  2244
2 23705 071.0231 298.6553 0014681 265.1236 094.8211 14.15008936953353
Epoch (UTC): 16 April 2014 01:35:49
Eccentricity: 0.0014681
inclination: 71.0231°
perigee height: 831 km
apogee height: 853 km
right ascension of ascending node: 298.6553°
argument of perigee: 265.1236°
revolutions per day: 14.15008936
mean anomaly at epoch: 94.8211°
orbit number at epoch: 95335

The dashed part of the orbit path shows where the satellite is in the earth's shadow,  

DLR